SCP
0 0 0 0 0 0 0 0 0 0 0 0 0 0 0 0 -0 -0 0 0 0 0 0 0 -0 -0 -0 0 0 0 0 0 0 0 0 0 0 0 0 0 0 0 0 0 0 0 0 0 0 0 0 -0 -0 -0
0 0 0 0 0 0 0 0 0 0 0 0 0 0 0 0 -0 -0 -0 0 0 0 -0 -0 -0 -0 -0 -0 0 0 0 0 0 0 0 0 0 0 0 0 0 0 0 0 0 0 0 -0 0 -0 -0 -0 0 -0
0 0 0 0 0 0 0 0 0 -0 -0 0 0 0 0 -0 -0 -0 0 0 0 0 0 0 -0 -0 -0 0 0 0 0 0 0 0 0 0 0 0 0 0 0 0 0 0 0 0 0 0 -0 -0 -0 0 0 0
0 0 0 0 0 0 0 0 0 -0 0 0 0 0 0 -0 -0 -0 0 0 0 0 0 0 -0 -0 -0 -0 -0 0 0 0 0 0 0 0 0 0 0 0 0 0 0 0 -0 -0 0 -0 0 0 -0 -0 -0 -0
0 0 0 0 0 0 0 0 0 0 0 0 0 0 -0 -0 -0 -0 0 0 0 0 0 0 -0 -0 -0 0 -0 -0 -0 -0 0 0 0 0 0 0 0 0 0 0 0 0 0 0 0 0 0 0 -0 -0 -0 -0
0 0 0 0 0 0 0 0 0 0 0 0 0 0 -0 -0 -0 0 -0 0 0 0 0 -0 -0 -0 -0 -0 0 -0 0 0 0 0 0 0 0 0 0 0 0 0 0 -0 0 0 -0 -0 -0 -0 -0 0 0 0
0 0 0 0 0 0 0 0 0 0 0 0 0 0 -0 -0 -0 -0 0 0 0 0 0 0 -0 0 -0 -0 0 0 0 0 0 0 0 0 0 0 0 0 0 -0 -0 -0 -0 -0 -0 0 0 0 0 0 -0 0
0 0 0 0 0 0 0 0 0 0 0 0 0 -0 -0 -0 -0 -0 -0 -0 0 0 0 -0 0 0 -0 0 0 0 0 0 0 0 0 0 0 0 0 0 0 0 0 0 -0 -0 0 0 0 0 0 0 0 0
0 0 0 0 0 0 -0 0 0 0 0 0 -0 -0 0 0 0 -0 -0 -0 0 -0 0 0 0 0 0 0 0 0 0 0 0 0 0 0 0 0 0 0 0 0 0 -0 -0 0 0 0 0 0 0 0 0 0
0 0 0 0 0 -0 -0 0 0 0 0 -0 0 0 0 -0 -0 -0 -0 -0 -0 -0 0 0 0 0 0 0 0 0 0 0 0 0 0 0 0 -0 -0 0 0 0 -0 -0 -0 0 0 0 0 0 0 0 0 0
0 0 -0 0 -0 -0 -0 -0 0 0 0 0 -0 0 -0 -0 -0 0 -0 -0 0 0 -0 -0 -0 0 0 0 0 0 0 0 0 0 0 0 0 0 0 0 0 0 0 0 0 0 0 0 0 0 0 0 0 0
0 0 -0 0 0 -0 -0 0 0 0 0 0 0 -0 -0 -0 0 0 0 0 0 -0 -0 -0 -0 0 0 0 0 0 0 0 0 0 0 0 0 0 -0 -0 0 0 0 0 0 0 0 0 0 0 0 0 0 0
-0 -0 -0 0 -0 -0 -0 0 0 0 -0 0 0 0 0 0 0 -0 0 0 -0 -0 -0 -0 0 -0 0 -0 0 0 0 0 0 0 0 -0 -0 -0 -0 -0 -0 0 0 0 -0 -0 -0 -0 -0 -0 0 0 0 0
-0 -0 -0 0 -0 0 0 0 0 0 0 0 -0 0 -0 -0 -0 0 0 0 -0 -0 0 0 -0 -0 -0 -0 -0 -0 0 0 0 0 -0 0 0 -0 -0 -0 -0 -0 -0 -0 -0 -0 -0 -0 0 0 0 0 0 0
-0 -0 0 0 0 -0 0 0 -0 0 0 -0 -0 -0 -0 -0 0 0 -0 -0 -0 0 0 0 -0 -0 -0 0 0 -0 0 0 0 0 0 0 -0 0 0 0 -0 -0 0 0 0 0 0 0 0 0 0 0 0 0
-0 0 0 0 -0 0 -0 -0 0 0 0 -0 0 0 -0 -0 -0 -0 -0 -0 0 0 0 -0 -0 -0 -0 0 0 0 0 0 0 0 0 0 0 -0 0 0 -0 -0 0 0 0 0 0 0 0 0 0 0 0 0
0 0 0 0 -0 -0 -0 0 0 0 0 -0 0 0 0 0 0 -0 0 0 0 0 0 0 0 -0 0 0 0 0 0 0 0 0 0 0 0 0 0 0 0 0 0 0 0 0 -0 -0 -0 -0 0 -0 -0 -0
0 0 0 -0 -0 0 0 0 -0 0 -0 -0 0 0 0 -0 0 0 0 -0 0 0 0 0 0 -0 0 0 0 0 0 0 0 -0 0 0 0 0 0 0 0 -0 0 0 -0 0 -0 -0 -0 -0 -0 -0 0 0
0 0 -0 -0 0 0 0 0 0 0 -0 -0 -0 0 0 0 0 0 0 0 0 0 0 0 -0 -0 0 0 -0 -0 -0 -0 -0 -0 -0 -0 0 0 -0 -0 -0 -0 -0 -0 -0 -0 -0 -0 -0 -0 -0 -0 -0 0
0 0 0 0 0 0 0 0 0 0 -0 -0 -0 0 0 0 0 0 0 0 0 0 0 0 -0 0 0 -0 -0 -0 -0 -0 -0 0 0 -0 -0 -0 -0 -0 -0 -0 -0 -0 -0 -0 -0 -0 0 0 0 0 0 0
0 0 0 0 0 0 0 0 0 0 0 0 -0 -0 -0 -0 -0 -0 0 -0 0 -0 0 -0 -0 0 -0 0 -0 -0 -0 -0 -0 0 -0 -0 -0 -0 -0 0 -0 0 0 0 0 0 0 0 -0 0 0 0 0 0
0 0 0 0 0 0 0 0 0 0 0 0 -0 -0 -0 -0 0 -0 -0 0 0 0 0 -0 0 0 0 0 0 0 0 -0 -0 -0 -0 -0 -0 0 -0 -0 -0 -0 0 0 0 0 0 0 0 0 0 0 0 0
0 0 0 0 0 0 0 0 0 0 0 0 0 -0 0 -0 0 0 0 0 0 -0 -0 0 0 0 0 0 0 -0 -0 -0 -0 -0 0 -0 -0 -0 -0 0 0 0 0 0 0 0 0 0 0 0 0 0 0 0
0 0 0 0 0 0 0 0 0 0 0 0 0 0 0 -0 0 -0 -0 0 0 -0 -0 0 0 0 0 0 0 -0 -0 -0 0 -0 -0 0 0 0 0 0 0 0 0 -0 0 0 0 0 0 0 0 0 0 0
0 0 0 0 0 0 0 0 0 0 0 0 0 0 0 0 -0 -0 -0 0 0 0 0 -0 0 0 -0 0 0 -0 0 0 0 0 0 0 0 0 0 0 -0 0 0 -0 0 -0 0 0 0 0 0 0 0 0
0 0 0 0 0 0 0 0 0 0 0 0 0 0 0 0 0 -0 0 0 0 0 0 -0 -0 0 0 0 0 0 -0 -0 -0 0 0 0 0 -0 -0 -0 -0 0 -0 -0 -0 -0 0 0 0 0 0 0 0 0
0 0 0 0 0 0 0 0 0 0 0 0 0 0 0 0 0 0 0 0 0 0 0 0 0 0 0 0 0 0 -0 -0 -0 -0 -0 -0 -0 -0 -0 -0 -0 -0 -0 -0 -0 0 0 0 0 0 0 0 0 0
0 0 0 0 0 0 0 0 0 0 0 0 0 0 0 0 0 0 0 0 0 0 0 0 0 0 0 -0 -0 -0 -0 -0 -0 -0 -0 -0 -0 -0 -0 -0 -0 -0 -0 -0 0 0 0 0 0 0 0 0 0 0
0 0 0 0 0 0 0 0 0 0 0 0 0 0 0 0 0 -0 0 0 0 0 0 0 0 0 0 0 0 0 -0 0 0 -0 -0 -0 0 0 -0 -0 -0 -0 -0 -0 -0 0 0 0 0 0 0 0 0 0
0 0 0 0 0 0 0 0 0 0 0 0 0 0 0 0 0 0 0 0 0 0 0 0 0 0 0 -0 -0 -0 -0 0 0 0 0 0 0 -0 -0 -0 -0 -0 0 0 0 0 0 0 0 0 0 0 0 0
0 0 0 0 0 0 0 0 0 0 0 0 0 0 0 0 0 0 0 0 0 0 0 0 0 0 0 0 -0 -0 -0 -0 0 -0 0 0 -0 -0 0 -0 0 0 0 0 0 0 0 0 0 0 0 0 0 0
0 0 0 0 0 0 0 0 0 0 0 0 -0 -0 -0 0 0 0 0 0 0 0 0 0 0 0 0 0 0 0 -0 -0 0 -0 -0 -0 -0 0 0 0 0 0 0 0 0 0 0 0 0 0 0 0 0 0
0 0 0 0 0 0 0 0 0 0 -0 -0 -0 -0 -0 -0 -0 0 0 0 0 0 0 0 0 0 0 -0 -0 0 0 0 -0 -0 -0 -0 -0 0 0 0 0 0 0 0 0 0 0 0 0 0 0 0 0 0
Wind_Speed_500mb
44 46 45 41 39 41 45 50 50 52 52 48 46 43 39 40 43 45 39 28 37 14 38 17 49 37 39 23 9 32 21 9 6 10 5 5 6 8 5 18 13 7 7 3 1 10 2 18 22 14 20 53 58 59
44 44 43 41 43 44 44 47 48 52 51 47 43 42 43 41 36 36 39 34 39 25 46 57 27 26 37 52 32 23 12 18 8 7 7 7 8 10 10 7 8 6 7 5 8 14 33 70 55 63 71 65 60 65
43 44 42 43 45 45 45 49 51 52 50 46 40 39 41 39 36 30 38 36 33 17 38 19 21 27 37 32 22 7 15 32 29 30 7 6 8 7 7 19 14 14 20 16 16 27 35 64 69 72 71 68 60 52
42 44 43 43 44 47 48 50 51 52 48 41 37 39 41 40 31 27 27 22 18 14 8 16 30 31 40 28 26 24 30 39 43 22 3 6 6 16 9 11 15 7 9 29 39 38 56 55 63 70 68 63 61 50
43 44 43 44 46 46 49 51 51 50 45 36 36 38 40 37 27 21 16 6 16 13 7 24 27 28 36 31 24 29 33 41 39 12 7 7 8 9 6 9 13 15 19 18 15 25 47 44 55 56 60 57 52 49
42 42 42 44 47 50 51 49 48 47 42 36 36 33 27 27 23 15 4 7 14 22 7 7 21 19 34 29 25 32 36 28 26 16 7 9 5 8 7 6 12 8 30 65 43 58 70 64 60 55 58 55 50 42
42 42 42 44 49 51 46 43 48 45 38 35 35 30 21 18 20 9 6 14 24 16 5 7 12 15 26 24 25 27 29 28 21 11 14 14 18 17 7 8 33 55 67 71 70 76 61 57 57 54 51 48 40 37
41 40 39 45 50 46 37 45 47 43 34 33 27 20 14 13 13 12 10 18 14 8 6 4 7 14 21 13 12 18 17 16 22 12 15 9 19 14 8 26 48 56 59 55 51 61 65 55 50 48 46 45 43 34
40 37 38 45 46 37 39 44 43 39 33 27 22 16 10 6 10 13 34 17 8 5 8 4 5 5 20 15 10 7 10 5 6 7 7 11 8 9 13 30 32 35 46 64 66 59 53 48 45 44 43 37 35 27
36 35 36 41 44 39 38 41 40 37 32 21 17 9 6 6 25 18 7 4 6 6 8 3 10 5 15 13 11 12 9 4 5 3 9 7 7 35 39 33 31 37 53 63 57 48 46 42 51 52 47 37 28 18
33 31 34 39 42 36 35 38 39 44 28 20 14 7 21 16 9 6 7 8 6 3 3 4 10 7 16 7 5 15 4 1 4 4 4 6 5 15 33 38 36 39 35 42 43 42 47 49 47 46 39 29 20 14
32 29 29 34 38 30 32 35 36 39 34 30 24 26 16 7 7 6 4 6 5 4 7 12 11 12 7 8 4 9 5 4 3 3 7 4 4 14 31 36 35 31 35 39 37 50 45 43 44 46 37 27 17 11
31 24 26 32 33 27 32 31 28 31 25 11 7 6 7 8 7 3 7 5 6 12 12 18 8 11 10 16 3 3 4 0 5 6 4 4 8 23 23 31 32 32 33 34 44 47 48 43 34 26 24 15 13 14
28 21 24 26 23 28 32 29 25 22 10 6 7 9 1 3 8 6 7 7 9 15 23 19 7 10 9 7 5 6 4 4 4 5 4 5 15 23 30 29 31 34 42 46 48 45 41 42 42 34 27 17 13 17
24 18 20 18 30 34 30 24 9 10 6 5 7 5 4 12 4 5 6 11 16 15 13 14 5 5 2 4 2 5 6 5 7 4 2 18 18 22 21 26 31 33 35 38 40 41 42 41 38 35 27 22 15 14
18 14 9 28 36 28 25 10 2 5 5 4 5 8 18 14 9 13 11 14 12 21 17 9 3 3 2 4 3 6 5 4 3 3 16 31 26 31 31 30 31 32 36 40 39 40 41 37 33 31 17 9 13 14
9 5 24 29 24 21 6 3 6 5 5 5 6 10 10 14 16 14 13 13 20 15 3 5 6 0 6 4 4 6 3 3 14 23 36 24 24 35 26 18 23 39 40 47 48 40 36 31 24 15 15 13 18 19
17 14 19 21 25 10 4 4 4 6 9 12 5 6 8 12 12 10 18 11 9 6 10 2 6 4 2 3 3 2 11 27 32 36 37 39 42 26 32 37 41 40 47 43 37 33 33 25 19 15 17 18 17 19
12 14 6 13 21 12 4 3 4 7 9 6 17 14 15 13 20 18 17 11 3 1 5 7 1 3 3 4 19 28 27 32 32 28 29 32 16 34 40 37 37 34 30 30 30 29 21 16 12 10 17 19 19 24
11 4 4 10 13 4 5 6 5 8 10 9 24 15 11 8 9 8 2 3 3 3 3 1 3 6 20 33 29 30 33 38 37 31 38 39 36 34 30 29 31 30 28 24 18 18 25 21 13 17 20 23 27 23
2 3 10 8 6 6 6 7 7 11 13 12 20 14 12 7 2 7 10 5 7 6 3 6 10 24 21 32 35 44 37 29 27 36 42 37 29 29 30 27 23 17 20 22 18 20 21 14 21 21 12 7 4 15
3 6 7 4 4 4 8 9 11 17 10 18 25 23 8 4 5 5 7 2 7 5 1 2 23 27 26 23 23 23 25 27 35 40 38 37 32 24 25 27 20 18 21 21 23 22 21 19 15 12 12 15 13 21
3 3 5 5 5 5 11 9 8 7 6 7 5 6 6 6 7 3 2 5 10 14 8 9 25 24 26 25 22 25 36 35 36 31 25 26 24 22 22 21 21 26 26 24 23 23 20 18 19 9 8 16 21 21
4 4 6 6 12 7 8 8 10 9 7 9 5 4 3 5 5 1 0 5 18 18 19 23 27 25 23 21 31 37 28 33 28 26 27 29 26 20 23 27 23 22 20 21 15 9 22 19 14 12 9 10 11 20
6 7 8 8 9 9 7 6 10 9 8 12 9 3 3 7 1 3 3 9 20 20 23 26 27 28 26 24 21 25 29 28 29 28 26 27 29 27 24 21 18 17 16 15 18 25 14 19 16 16 17 19 17 14
7 9 12 10 7 8 8 5 7 12 15 6 4 5 5 3 3 2 4 4 18 22 17 21 18 26 36 30 29 28 27 27 28 29 30 26 26 24 18 16 17 15 13 18 21 18 19 19 17 16 19 21 21 13
6 9 17 16 10 7 9 17 23 8 5 1 1 1 3 5 2 5 3 2 7 17 19 5 10 16 31 33 33 25 28 30 28 27 22 18 17 17 17 22 20 14 18 16 19 20 21 16 12 11 12 17 16 11
12 12 9 21 22 24 14 15 0 6 2 5 5 1 1 2 3 6 4 7 11 20 21 14 16 12 31 36 30 34 34 31 32 32 29 23 15 12 12 23 25 25 26 24 21 19 17 18 19 16 15 16 16 16
13 17 18 23 21 11 9 10 2 5 9 7 1 4 8 3 2 2 9 15 13 21 18 21 16 6 37 36 35 29 35 38 38 33 28 23 16 10 9 21 19 22 27 30 26 24 23 22 21 20 18 15 12 14
22 26 18 16 13 7 1 3 8 10 10 9 3 5 2 4 4 6 6 4 19 20 16 24 19 14 34 40 38 42 33 31 33 33 30 31 28 21 9 22 18 11 16 33 31 26 22 21 22 22 17 14 16 7
22 15 26 27 6 3 8 8 3 4 2 5 7 8 11 7 6 9 12 10 7 25 11 22 20 21 23 39 39 35 28 30 31 24 24 27 24 20 18 24 18 12 13 12 13 23 21 16 16 17 17 21 16 17
18 15 6 6 6 10 6 5 5 5 6 6 7 6 7 6 7 10 17 23 19 19 24 17 12 16 25 30 32 32 26 32 30 29 33 27 20 18 26 23 21 16 18 10 13 12 14 16 26 24 22 18 15 20
18 11 9 6 6 8 12 11 3 3 7 7 8 10 11 8 7 5 5 14 18 21 21 27 18 8 28 38 28 34 35 35 36 34 30 26 21 21 28 27 24 18 19 19 21 24 24 23 24 23 20 23 22 21
Wind_Direction_500mb
334 336 336 335 336 336 334 337 336 339 339 338 338 337 337 336 339 337 342 344 332 276 303 297 322 309 310 309 323 318 324 340 316 359 325 3 22 42 50 73 83 94 77 80 197 91 77 336 30 89 119 84 85 82
333 335 337 336 333 331 331 334 334 334 336 337 336 337 336 333 335 333 326 339 323 297 289 318 322 337 320 308 305 320 292 301 333 326 344 356 14 19 12 83 70 84 125 148 77 91 80 80 93 96 94 86 85 89
332 334 335 337 335 334 332 331 332 333 334 336 335 337 335 333 331 324 318 338 338 302 316 327 338 356 353 345 346 298 320 334 317 316 295 348 48 326 46 78 100 58 55 99 85 80 85 87 89 92 96 95 95 94
331 333 333 332 332 331 331 331 332 335 335 337 334 335 334 332 328 317 317 338 344 315 309 297 346 357 2 2 355 351 329 339 344 313 136 6 32 351 32 72 69 53 96 102 99 99 89 92 99 103 101 99 96 92
331 331 331 330 330 330 330 332 333 335 336 334 332 334 337 337 327 319 302 311 345 348 296 297 345 359 1 352 9 2 1 358 345 360 25 56 56 335 6 39 29 87 116 118 125 111 114 111 111 109 105 106 104 101
329 329 328 330 331 329 329 333 334 334 336 330 327 331 335 349 349 347 315 251 319 336 316 315 323 339 350 0 3 3 7 7 17 11 347 39 78 171 51 46 32 123 106 114 114 113 108 108 104 106 103 102 101 100
327 328 328 335 330 328 330 332 335 335 333 329 325 324 321 316 334 320 292 303 315 319 294 289 306 325 354 6 11 2 13 22 19 22 357 351 9 46 39 51 77 96 108 113 117 115 105 106 105 111 110 107 103 99
326 329 333 335 332 331 332 334 339 337 332 327 329 328 325 320 314 308 322 337 327 315 276 310 296 317 351 333 352 5 360 38 13 1 4 353 29 62 63 94 102 105 108 112 109 111 113 114 116 117 112 107 99 94
326 329 335 335 336 332 333 339 342 341 337 332 326 321 334 8 353 326 312 309 311 270 308 212 307 324 347 342 314 349 349 55 6 34 353 20 31 49 115 88 82 126 123 116 116 117 119 125 129 123 116 109 104 101
324 329 332 333 335 331 333 341 343 345 343 353 5 349 305 340 302 314 287 231 223 236 232 258 318 317 336 327 345 2 352 20 47 5 18 57 55 87 96 101 118 112 120 125 128 132 138 131 111 106 101 105 105 104
325 328 327 330 334 330 335 342 342 344 353 10 348 303 288 307 325 256 261 215 178 254 62 21 22 342 3 1 322 353 298 320 76 287 89 45 56 71 92 102 115 122 126 130 133 134 127 120 114 111 105 105 104 99
322 321 323 327 332 327 336 340 338 343 342 315 301 309 329 322 256 287 283 13 356 64 29 14 338 348 335 331 338 345 318 319 93 193 69 57 318 82 95 100 103 110 124 129 124 118 113 114 121 118 116 106 94 77
326 318 323 324 329 330 334 338 333 329 335 330 335 295 274 307 357 11 12 28 16 0 345 351 346 348 351 4 336 351 321 62 262 59 72 74 114 86 106 108 101 107 108 114 117 113 111 108 115 119 114 98 101 95
324 316 321 322 332 333 330 334 331 338 347 315 321 313 298 303 12 13 2 351 328 307 322 346 355 17 348 346 335 304 319 291 95 81 86 126 108 88 88 119 123 125 121 114 111 109 111 112 113 107 103 99 67 61
319 318 315 308 331 332 325 330 320 328 327 305 308 288 332 356 348 63 323 334 336 329 326 330 305 27 291 299 338 307 284 67 42 87 65 138 159 142 122 102 106 104 111 113 120 122 118 114 113 113 112 104 73 59
316 341 323 323 326 326 322 332 1 303 296 289 269 293 342 344 13 16 9 345 340 347 318 280 269 263 334 280 271 355 26 54 114 102 116 143 135 141 142 140 141 142 143 135 135 130 125 122 124 124 122 81 113 108
315 324 314 329 333 333 336 5 340 272 261 257 251 278 300 280 277 326 345 335 333 311 339 339 350 31 321 357 57 13 38 92 141 132 138 124 130 126 117 159 146 124 123 129 131 127 122 128 128 122 120 110 92 92
298 323 348 341 342 354 39 351 295 263 255 231 233 251 229 244 266 292 329 314 301 313 342 13 289 353 346 10 94 112 120 127 119 125 134 131 121 102 111 110 118 128 123 118 118 122 135 134 122 124 148 145 129 131
315 336 350 345 344 3 344 281 273 277 267 255 256 248 235 268 281 269 306 297 281 201 335 337 350 276 128 127 138 141 147 139 141 141 137 140 149 127 121 118 114 110 111 118 126 134 133 120 113 123 152 143 149 145
295 293 336 328 329 352 289 260 269 262 276 313 293 279 250 251 237 218 205 268 244 108 340 302 255 91 138 154 158 147 144 145 145 142 124 125 129 126 118 114 116 123 121 123 126 132 139 144 150 113 126 131 129 116
261 1 331 310 309 241 264 290 253 259 299 285 295 306 299 149 190 199 190 199 187 76 266 275 139 128 134 144 142 145 146 148 153 141 135 133 132 133 137 137 139 140 135 133 125 162 151 112 103 111 116 100 81 186
181 301 315 280 255 239 260 242 269 303 281 275 289 273 267 156 165 61 144 154 86 71 195 203 155 150 151 149 155 152 152 171 151 139 137 137 140 148 150 150 156 162 171 160 152 140 129 137 151 166 174 135 128 121
285 329 272 224 246 242 266 227 244 231 246 267 247 240 206 165 128 90 112 119 135 141 173 159 147 141 139 151 151 128 147 137 136 141 145 156 159 156 164 169 167 154 135 134 151 156 158 159 141 142 128 118 102 117
255 258 247 230 200 247 260 222 237 253 252 244 257 237 129 116 102 79 266 126 148 142 156 140 134 131 137 140 135 143 150 151 149 159 160 149 144 141 136 135 134 145 156 162 168 186 142 144 156 175 153 172 144 129
273 240 221 256 225 220 224 233 240 245 236 220 225 204 151 124 166 219 194 157 175 162 165 164 162 147 152 150 152 161 159 158 159 161 155 153 147 137 131 125 126 135 156 143 140 147 148 144 141 156 163 157 149 151
232 229 199 212 212 225 207 241 244 247 253 228 250 32 55 103 215 214 69 149 174 177 180 181 185 172 159 158 171 166 176 170 155 142 146 155 159 161 157 153 147 153 167 164 166 163 160 169 179 196 201 183 161 150
250 252 220 237 239 244 268 252 261 267 263 130 59 96 234 215 120 90 99 132 162 174 183 198 157 186 170 164 166 167 159 154 156 144 138 141 156 170 184 183 175 155 164 169 169 175 176 177 164 156 123 135 156 155
248 275 243 228 234 242 239 261 134 306 52 131 126 61 24 29 89 136 167 251 217 174 182 177 178 202 176 162 160 165 149 149 146 146 142 141 153 168 154 163 164 168 172 171 173 182 178 175 176 175 180 185 182 185
237 241 267 265 252 245 245 254 227 155 156 165 116 152 190 215 178 213 280 326 222 178 192 171 165 129 164 160 165 168 169 169 158 158 159 156 167 205 203 177 182 193 191 183 175 176 174 179 176 177 181 187 185 160
244 228 239 249 250 230 170 35 128 135 97 115 184 263 83 128 209 207 267 340 185 170 182 177 190 169 164 161 163 162 170 175 183 183 184 188 198 214 188 154 188 222 184 193 196 195 195 196 189 180 174 171 175 156
233 262 237 232 234 198 173 188 176 139 154 240 247 262 264 254 251 255 234 241 230 188 191 202 194 194 197 174 178 177 174 184 198 194 200 207 206 208 179 177 194 204 184 202 182 192 198 166 157 146 172 200 206 190
226 214 260 212 159 170 182 150 154 239 215 247 254 248 263 233 238 263 241 225 218 208 206 205 192 215 193 182 193 206 196 185 185 190 196 201 207 189 180 185 195 194 192 189 137 134 142 187 190 196 190 210 189 202
216 216 225 218 168 194 190 173 213 204 229 228 251 258 249 228 238 263 225 205 204 202 211 209 184 192 209 196 209 201 193 187 191 194 197 206 211 192 176 186 196 189 177 169 180 205 203 216 225 235 229 226 237 246
Wind_Speed_850mb
44 46 45 41 39 41 45 50 50 52 52 48 46 43 39 40 43 45 39 28 37 14 38 17 49 37 39 23 9 32 21 9 6 10 5 5 6 8 5 18 13 7 7 3 1 10 2 18 22 14 20 53 58 59
44 44 43 41 43 44 44 47 48 52 51 47 43 42 43 41 36 36 39 34 39 25 46 57 27 26 37 52 32 23 12 18 8 7 7 7 8 10 10 7 8 6 7 5 8 14 33 70 55 63 71 65 60 65
43 44 42 43 45 45 45 49 51 52 50 46 40 39 41 39 36 30 38 36 33 17 38 19 21 27 37 32 22 7 15 32 29 30 7 6 8 7 7 19 14 14 20 16 16 27 35 64 69 72 71 68 60 52
42 44 43 43 44 47 48 50 51 52 48 41 37 39 41 40 31 27 27 22 18 14 8 16 30 31 40 28 26 24 30 39 43 22 3 6 6 16 9 11 15 7 9 29 39 38 56 55 63 70 68 63 61 50
43 44 43 44 46 46 49 51 51 50 45 36 36 38 40 37 27 21 16 6 16 13 7 24 27 28 36 31 24 29 33 41 39 12 7 7 8 9 6 9 13 15 19 18 15 25 47 44 55 56 60 57 52 49
42 42 42 44 47 50 51 49 48 47 42 36 36 33 27 27 23 15 4 7 14 22 7 7 21 19 34 29 25 32 36 28 26 16 7 9 5 8 7 6 12 8 30 65 43 58 70 64 60 55 58 55 50 42
42 42 42 44 49 51 46 43 48 45 38 35 35 30 21 18 20 9 6 14 24 16 5 7 12 15 26 24 25 27 29 28 21 11 14 14 18 17 7 8 33 55 67 71 70 76 61 57 57 54 51 48 40 37
41 40 39 45 50 46 37 45 47 43 34 33 27 20 14 13 13 12 10 18 14 8 6 4 7 14 21 13 12 18 17 16 22 12 15 9 19 14 8 26 48 56 59 55 51 61 65 55 50 48 46 45 43 34
40 37 38 45 46 37 39 44 43 39 33 27 22 16 10 6 10 13 34 17 8 5 8 4 5 5 20 15 10 7 10 5 6 7 7 11 8 9 13 30 32 35 46 64 66 59 53 48 45 44 43 37 35 27
36 35 36 41 44 39 38 41 40 37 32 21 17 9 6 6 25 18 7 4 6 6 8 3 10 5 15 13 11 12 9 4 5 3 9 7 7 35 39 33 31 37 53 63 57 48 46 42 51 52 47 37 28 18
33 31 34 39 42 36 35 38 39 44 28 20 14 7 21 16 9 6 7 8 6 3 3 4 10 7 16 7 5 15 4 1 4 4 4 6 5 15 33 38 36 39 35 42 43 42 47 49 47 46 39 29 20 14
32 29 29 34 38 30 32 35 36 39 34 30 24 26 16 7 7 6 4 6 5 4 7 12 11 12 7 8 4 9 5 4 3 3 7 4 4 14 31 36 35 31 35 39 37 50 45 43 44 46 37 27 17 11
31 24 26 32 33 27 32 31 28 31 25 11 7 6 7 8 7 3 7 5 6 12 12 18 8 11 10 16 3 3 4 0 5 6 4 4 8 23 23 31 32 32 33 34 44 47 48 43 34 26 24 15 13 14
28 21 24 26 23 28 32 29 25 22 10 6 7 9 1 3 8 6 7 7 9 15 23 19 7 10 9 7 5 6 4 4 4 5 4 5 15 23 30 29 31 34 42 46 48 45 41 42 42 34 27 17 13 17
24 18 20 18 30 34 30 24 9 10 6 5 7 5 4 12 4 5 6 11 16 15 13 14 5 5 2 4 2 5 6 5 7 4 2 18 18 22 21 26 31 33 35 38 40 41 42 41 38 35 27 22 15 14
18 14 9 28 36 28 25 10 2 5 5 4 5 8 18 14 9 13 11 14 12 21 17 9 3 3 2 4 3 6 5 4 3 3 16 31 26 31 31 30 31 32 36 40 39 40 41 37 33 31 17 9 13 14
9 5 24 29 24 21 6 3 6 5 5 5 6 10 10 14 16 14 13 13 20 15 3 5 6 0 6 4 4 6 3 3 14 23 36 24 24 35 26 18 23 39 40 47 48 40 36 31 24 15 15 13 18 19
17 14 19 21 25 10 4 4 4 6 9 12 5 6 8 12 12 10 18 11 9 6 10 2 6 4 2 3 3 2 11 27 32 36 37 39 42 26 32 37 41 40 47 43 37 33 33 25 19 15 17 18 17 19
12 14 6 13 21 12 4 3 4 7 9 6 17 14 15 13 20 18 17 11 3 1 5 7 1 3 3 4 19 28 27 32 32 28 29 32 16 34 40 37 37 34 30 30 30 29 21 16 12 10 17 19 19 24
11 4 4 10 13 4 5 6 5 8 10 9 24 15 11 8 9 8 2 3 3 3 3 1 3 6 20 33 29 30 33 38 37 31 38 39 36 34 30 29 31 30 28 24 18 18 25 21 13 17 20 23 27 23
2 3 10 8 6 6 6 7 7 11 13 12 20 14 12 7 2 7 10 5 7 6 3 6 10 24 21 32 35 44 37 29 27 36 42 37 29 29 30 27 23 17 20 22 18 20 21 14 21 21 12 7 4 15
3 6 7 4 4 4 8 9 11 17 10 18 25 23 8 4 5 5 7 2 7 5 1 2 23 27 26 23 23 23 25 27 35 40 38 37 32 24 25 27 20 18 21 21 23 22 21 19 15 12 12 15 13 21
3 3 5 5 5 5 11 9 8 7 6 7 5 6 6 6 7 3 2 5 10 14 8 9 25 24 26 25 22 25 36 35 36 31 25 26 24 22 22 21 21 26 26 24 23 23 20 18 19 9 8 16 21 21
4 4 6 6 12 7 8 8 10 9 7 9 5 4 3 5 5 1 0 5 18 18 19 23 27 25 23 21 31 37 28 33 28 26 27 29 26 20 23 27 23 22 20 21 15 9 22 19 14 12 9 10 11 20
6 7 8 8 9 9 7 6 10 9 8 12 9 3 3 7 1 3 3 9 20 20 23 26 27 28 26 24 21 25 29 28 29 28 26 27 29 27 24 21 18 17 16 15 18 25 14 19 16 16 17 19 17 14
7 9 12 10 7 8 8 5 7 12 15 6 4 5 5 3 3 2 4 4 18 22 17 21 18 26 36 30 29 28 27 27 28 29 30 26 26 24 18 16 17 15 13 18 21 18 19 19 17 16 19 21 21 13
6 9 17 16 10 7 9 17 23 8 5 1 1 1 3 5 2 5 3 2 7 17 19 5 10 16 31 33 33 25 28 30 28 27 22 18 17 17 17 22 20 14 18 16 19 20 21 16 12 11 12 17 16 11
12 12 9 21 22 24 14 15 0 6 2 5 5 1 1 2 3 6 4 7 11 20 21 14 16 12 31 36 30 34 34 31 32 32 29 23 15 12 12 23 25 25 26 24 21 19 17 18 19 16 15 16 16 16
13 17 18 23 21 11 9 10 2 5 9 7 1 4 8 3 2 2 9 15 13 21 18 21 16 6 37 36 35 29 35 38 38 33 28 23 16 10 9 21 19 22 27 30 26 24 23 22 21 20 18 15 12 14
22 26 18 16 13 7 1 3 8 10 10 9 3 5 2 4 4 6 6 4 19 20 16 24 19 14 34 40 38 42 33 31 33 33 30 31 28 21 9 22 18 11 16 33 31 26 22 21 22 22 17 14 16 7
22 15 26 27 6 3 8 8 3 4 2 5 7 8 11 7 6 9 12 10 7 25 11 22 20 21 23 39 39 35 28 30 31 24 24 27 24 20 18 24 18 12 13 12 13 23 21 16 16 17 17 21 16 17
18 15 6 6 6 10 6 5 5 5 6 6 7 6 7 6 7 10 17 23 19 19 24 17 12 16 25 30 32 32 26 32 30 29 33 27 20 18 26 23 21 16 18 10 13 12 14 16 26 24 22 18 15 20
18 11 9 6 6 8 12 11 3 3 7 7 8 10 11 8 7 5 5 14 18 21 21 27 18 8 28 38 28 34 35 35 36 34 30 26 21 21 28 27 24 18 19 19 21 24 24 23 24 23 20 23 22 21
Wind_Direction_850mb
334 336 336 335 336 336 334 337 336 339 339 338 338 337 337 336 339 337 342 344 332 276 303 297 322 309 310 309 323 318 324 340 316 359 325 3 22 42 50 73 83 94 77 80 197 91 77 336 30 89 119 84 85 82
333 335 337 336 333 331 331 334 334 334 336 337 336 337 336 333 335 333 326 339 323 297 289 318 322 337 320 308 305 320 292 301 333 326 344 356 14 19 12 83 70 84 125 148 77 91 80 80 93 96 94 86 85 89
332 334 335 337 335 334 332 331 332 333 334 336 335 337 335 333 331 324 318 338 338 302 316 327 338 356 353 345 346 298 320 334 317 316 295 348 48 326 46 78 100 58 55 99 85 80 85 87 89 92 96 95 95 94
331 333 333 332 332 331 331 331 332 335 335 337 334 335 334 332 328 317 317 338 344 315 309 297 346 357 2 2 355 351 329 339 344 313 136 6 32 351 32 72 69 53 96 102 99 99 89 92 99 103 101 99 96 92
331 331 331 330 330 330 330 332 333 335 336 334 332 334 337 337 327 319 302 311 345 348 296 297 345 359 1 352 9 2 1 358 345 360 25 56 56 335 6 39 29 87 116 118 125 111 114 111 111 109 105 106 104 101
329 329 328 330 331 329 329 333 334 334 336 330 327 331 335 349 349 347 315 251 319 336 316 315 323 339 350 0 3 3 7 7 17 11 347 39 78 171 51 46 32 123 106 114 114 113 108 108 104 106 103 102 101 100
327 328 328 335 330 328 330 332 335 335 333 329 325 324 321 316 334 320 292 303 315 319 294 289 306 325 354 6 11 2 13 22 19 22 357 351 9 46 39 51 77 96 108 113 117 115 105 106 105 111 110 107 103 99
326 329 333 335 332 331 332 334 339 337 332 327 329 328 325 320 314 308 322 337 327 315 276 310 296 317 351 333 352 5 360 38 13 1 4 353 29 62 63 94 102 105 108 112 109 111 113 114 116 117 112 107 99 94
326 329 335 335 336 332 333 339 342 341 337 332 326 321 334 8 353 326 312 309 311 270 308 212 307 324 347 342 314 349 349 55 6 34 353 20 31 49 115 88 82 126 123 116 116 117 119 125 129 123 116 109 104 101
324 329 332 333 335 331 333 341 343 345 343 353 5 349 305 340 302 314 287 231 223 236 232 258 318 317 336 327 345 2 352 20 47 5 18 57 55 87 96 101 118 112 120 125 128 132 138 131 111 106 101 105 105 104
325 328 327 330 334 330 335 342 342 344 353 10 348 303 288 307 325 256 261 215 178 254 62 21 22 342 3 1 322 353 298 320 76 287 89 45 56 71 92 102 115 122 126 130 133 134 127 120 114 111 105 105 104 99
322 321 323 327 332 327 336 340 338 343 342 315 301 309 329 322 256 287 283 13 356 64 29 14 338 348 335 331 338 345 318 319 93 193 69 57 318 82 95 100 103 110 124 129 124 118 113 114 121 118 116 106 94 77
326 318 323 324 329 330 334 338 333 329 335 330 335 295 274 307 357 11 12 28 16 0 345 351 346 348 351 4 336 351 321 62 262 59 72 74 114 86 106 108 101 107 108 114 117 113 111 108 115 119 114 98 101 95
324 316 321 322 332 333 330 334 331 338 347 315 321 313 298 303 12 13 2 351 328 307 322 346 355 17 348 346 335 304 319 291 95 81 86 126 108 88 88 119 123 125 121 114 111 109 111 112 113 107 103 99 67 61
319 318 315 308 331 332 325 330 320 328 327 305 308 288 332 356 348 63 323 334 336 329 326 330 305 27 291 299 338 307 284 67 42 87 65 138 159 142 122 102 106 104 111 113 120 122 118 114 113 113 112 104 73 59
316 341 323 323 326 326 322 332 1 303 296 289 269 293 342 344 13 16 9 345 340 347 318 280 269 263 334 280 271 355 26 54 114 102 116 143 135 141 142 140 141 142 143 135 135 130 125 122 124 124 122 81 113 108
315 324 314 329 333 333 336 5 340 272 261 257 251 278 300 280 277 326 345 335 333 311 339 339 350 31 321 357 57 13 38 92 141 132 138 124 130 126 117 159 146 124 123 129 131 127 122 128 128 122 120 110 92 92
298 323 348 341 342 354 39 351 295 263 255 231 233 251 229 244 266 292 329 314 301 313 342 13 289 353 346 10 94 112 120 127 119 125 134 131 121 102 111 110 118 128 123 118 118 122 135 134 122 124 148 145 129 131
315 336 350 345 344 3 344 281 273 277 267 255 256 248 235 268 281 269 306 297 281 201 335 337 350 276 128 127 138 141 147 139 141 141 137 140 149 127 121 118 114 110 111 118 126 134 133 120 113 123 152 143 149 145
295 293 336 328 329 352 289 260 269 262 276 313 293 279 250 251 237 218 205 268 244 108 340 302 255 91 138 154 158 147 144 145 145 142 124 125 129 126 118 114 116 123 121 123 126 132 139 144 150 113 126 131 129 116
261 1 331 310 309 241 264 290 253 259 299 285 295 306 299 149 190 199 190 199 187 76 266 275 139 128 134 144 142 145 146 148 153 141 135 133 132 133 137 137 139 140 135 133 125 162 151 112 103 111 116 100 81 186
181 301 315 280 255 239 260 242 269 303 281 275 289 273 267 156 165 61 144 154 86 71 195 203 155 150 151 149 155 152 152 171 151 139 137 137 140 148 150 150 156 162 171 160 152 140 129 137 151 166 174 135 128 121
285 329 272 224 246 242 266 227 244 231 246 267 247 240 206 165 128 90 112 119 135 141 173 159 147 141 139 151 151 128 147 137 136 141 145 156 159 156 164 169 167 154 135 134 151 156 158 159 141 142 128 118 102 117
255 258 247 230 200 247 260 222 237 253 252 244 257 237 129 116 102 79 266 126 148 142 156 140 134 131 137 140 135 143 150 151 149 159 160 149 144 141 136 135 134 145 156 162 168 186 142 144 156 175 153 172 144 129
273 240 221 256 225 220 224 233 240 245 236 220 225 204 151 124 166 219 194 157 175 162 165 164 162 147 152 150 152 161 159 158 159 161 155 153 147 137 131 125 126 135 156 143 140 147 148 144 141 156 163 157 149 151
232 229 199 212 212 225 207 241 244 247 253 228 250 32 55 103 215 214 69 149 174 177 180 181 185 172 159 158 171 166 176 170 155 142 146 155 159 161 157 153 147 153 167 164 166 163 160 169 179 196 201 183 161 150
250 252 220 237 239 244 268 252 261 267 263 130 59 96 234 215 120 90 99 132 162 174 183 198 157 186 170 164 166 167 159 154 156 144 138 141 156 170 184 183 175 155 164 169 169 175 176 177 164 156 123 135 156 155
248 275 243 228 234 242 239 261 134 306 52 131 126 61 24 29 89 136 167 251 217 174 182 177 178 202 176 162 160 165 149 149 146 146 142 141 153 168 154 163 164 168 172 171 173 182 178 175 176 175 180 185 182 185
237 241 267 265 252 245 245 254 227 155 156 165 116 152 190 215 178 213 280 326 222 178 192 171 165 129 164 160 165 168 169 169 158 158 159 156 167 205 203 177 182 193 191 183 175 176 174 179 176 177 181 187 185 160
244 228 239 249 250 230 170 35 128 135 97 115 184 263 83 128 209 207 267 340 185 170 182 177 190 169 164 161 163 162 170 175 183 183 184 188 198 214 188 154 188 222 184 193 196 195 195 196 189 180 174 171 175 156
233 262 237 232 234 198 173 188 176 139 154 240 247 262 264 254 251 255 234 241 230 188 191 202 194 194 197 174 178 177 174 184 198 194 200 207 206 208 179 177 194 204 184 202 182 192 198 166 157 146 172 200 206 190
226 214 260 212 159 170 182 150 154 239 215 247 254 248 263 233 238 263 241 225 218 208 206 205 192 215 193 182 193 206 196 185 185 190 196 201 207 189 180 185 195 194 192 189 137 134 142 187 190 196 190 210 189 202
216 216 225 218 168 194 190 173 213 204 229 228 251 258 249 228 238 263 225 205 204 202 211 209 184 192 209 196 209 201 193 187 191 194 197 206 211 192 176 186 196 189 177 169 180 205 203 216 225 235 229 226 237 246